Date String (YYYY-MM-DD hh:mm:ss) UTC,Instrument flags,Ambient pressure (hPa),Sample flow (lpm),Bypass flow (lpm),Sample temperature (°C),Ambient temperature (°C),ASC tube jacket temperature (°C),LED temperature (°C),Box temperature (°C),Sample RH (%),Span deviation,Mass concentration (μg/m³),Mass concentration (μg/m³),Mass concentration (μg/m³)
DateTimeUTC,F1_M11,P_M11,Q1_M11,Q2_M11,T1_M11,T2_M11,T3_M11,T4_M11,T5_M11,U1_M11,ZSPAN_M11,X0_M11,X2_M11,X1_M11
2023-02-09 10:00:00,,0828.0,4.98,0.00,22.9,22.2,00.0,31.6,24.7,09.1,0000.0,0001.50,0000.55,0000.33
2023-02-09 10:01:00,,0828.0,5.05,0.00,22.8,21.9,00.0,31.6,24.6,09.0,0000.0,0001.50,0000.55,0000.32
2023-02-09 10:02:00,,0828.0,4.94,0.00,22.8,21.7,00.0,31.6,24.6,09.0,0000.0,0001.45,0000.52,0000.32
2023-02-09 10:03:00,,0828.0,4.97,0.00,22.8,21.6,00.0,31.6,24.5,09.1,0000.0,0001.24,0000.51,0000.31
2023-02-09 10:04:00,,0827.9,5.03,0.00,22.8,21.5,00.0,31.6,24.5,09.2,0000.0,0001.10,0000.50,0000.31
2023-02-09 10:05:00,,0828.0,5.01,0.00,22.8,21.4,00.0,31.6,24.5,09.2,0000.0,0001.09,0000.49,0000.30
2023-02-09 10:06:00,,0828.0,5.03,0.00,22.8,21.3,00.0,31.6,24.5,09.1,0000.0,0001.08,0000.49,0000.30
2023-02-09 10:07:00,,0828.0,5.00,0.00,22.8,21.3,00.0,31.6,24.5,09.1,0000.0,0001.11,0000.48,0000.30
2023-02-09 10:08:00,,0828.0,5.03,0.00,22.7,21.2,00.0,31.6,24.4,09.2,0000.0,0001.09,0000.46,0000.30
2023-02-09 10:09:00,,0828.0,4.99,0.00,22.7,21.2,00.0,31.6,24.4,09.2,0000.0,0001.17,0000.46,0000.30
2023-02-09 10:10:00,,0828.0,5.01,0.00,22.7,21.1,00.0,31.6,24.4,09.3,0000.0,0001.25,0000.48,0000.31
2023-02-09 10:11:00,,0827.9,4.98,0.00,22.7,21.1,00.0,31.6,24.4,09.3,0000.0,0001.15,0000.47,0000.31
2023-02-09 10:12:00,,0828.0,4.98,0.00,22.7,21.1,00.0,31.6,24.4,09.3,0000.0,0001.13,0000.47,0000.31
2023-02-09 10:13:00,,0828.0,5.00,0.00,22.7,21.1,00.0,31.6,24.4,09.3,0000.0,0001.07,0000.46,0000.32
2023-02-09 10:14:00,,0828.0,5.00,0.00,22.7,21.0,00.0,31.6,24.4,09.2,0000.0,0001.08,0000.46,0000.32
2023-02-09 10:15:00,,0828.0,4.97,0.00,22.6,21.0,00.0,31.6,24.4,09.1,0000.0,0001.15,0000.48,0000.32
2023-02-09 10:16:00,,0828.0,4.98,0.00,22.6,21.0,00.0,31.6,24.3,09.2,0000.0,0001.19,0000.49,0000.33
2023-02-09 10:17:00,,0828.0,5.00,0.00,22.7,21.6,00.0,31.5,24.5,09.3,0000.0,0001.17,0000.49,0000.33
2023-02-09 10:18:00,,0828.0,4.98,0.00,22.8,22.5,00.0,31.5,24.7,09.2,0000.0,0001.21,0000.51,0000.33
2023-02-09 10:19:00,,0828.0,5.08,0.00,22.8,22.7,00.0,31.6,24.8,09.1,0000.0,0001.36,0000.51,0000.33
2023-02-09 10:20:00,,0828.0,4.98,0.00,22.9,22.4,00.0,31.6,24.7,09.1,0000.0,0001.29,0000.50,0000.33
2023-02-09 10:21:00,,0827.9,5.00,0.00,22.9,22.1,00.0,31.6,24.7,09.1,0000.0,0001.14,0000.46,0000.32
2023-02-09 10:22:00,,0828.0,5.05,0.00,22.8,21.9,00.0,31.6,24.6,09.2,0000.0,0001.09,0000.45,0000.31
2023-02-09 10:23:00,,0828.0,4.94,0.00,22.8,21.8,00.0,31.6,24.6,09.2,0000.0,0001.08,0000.44,0000.31
2023-02-09 10:24:00,,0827.9,5.02,0.00,22.8,21.6,00.0,31.6,24.6,09.1,0000.0,0001.08,0000.44,0000.31
2023-02-09 10:25:00,,0827.9,5.00,0.00,22.8,21.5,00.0,31.6,24.6,09.1,0000.0,0001.08,0000.44,0000.30
2023-02-09 10:26:00,,0827.9,5.02,0.00,22.8,21.4,00.0,31.6,24.5,09.0,0000.0,0001.06,0000.44,0000.31
2023-02-09 10:27:00,,0827.9,4.97,0.00,22.8,21.4,00.0,31.6,24.5,09.2,0000.0,0001.02,0000.42,0000.31
2023-02-09 10:28:00,,0827.9,4.99,0.00,22.8,21.3,00.0,31.6,24.5,09.0,0000.0,0000.98,0000.40,0000.30
2023-02-09 10:29:00,,0828.0,4.96,0.00,22.8,21.3,00.0,31.6,24.5,08.9,0000.0,0000.87,0000.39,0000.30
2023-02-09 10:30:00,,0828.0,4.98,0.00,22.8,21.2,00.0,31.6,24.5,09.0,0000.0,0000.70,0000.40,0000.30
2023-02-09 10:31:00,,0828.0,5.01,0.00,22.7,21.2,00.0,31.6,24.4,09.0,0000.0,0001.53,0000.41,0000.30
2023-02-09 10:32:00,,0828.0,5.00,0.00,22.7,21.2,00.0,31.6,24.4,09.0,0000.0,0001.73,0000.43,0000.30
2023-02-09 10:33:00,,0828.0,4.95,0.00,22.7,21.2,00.0,31.6,24.4,09.0,0000.0,0002.32,0000.44,0000.30
2023-02-09 10:34:00,,0828.0,5.00,0.00,22.7,21.1,00.0,31.6,24.4,09.0,0000.0,0002.35,0000.45,0000.29
2023-02-09 10:35:00,,0828.0,5.01,0.00,22.7,21.1,00.0,31.6,24.4,09.0,0000.0,0002.43,0000.46,0000.30
2023-02-09 10:36:00,,0828.0,5.04,0.00,22.7,21.1,00.0,31.6,24.4,09.0,0000.0,0002.42,0000.46,0000.30
2023-02-09 10:37:00,,0828.0,4.96,0.00,22.7,21.1,00.0,31.6,24.4,09.0,0000.0,0002.40,0000.45,0000.30
2023-02-09 10:38:00,,0828.0,5.01,0.00,22.7,21.1,00.0,31.6,24.4,09.0,0000.0,0002.48,0000.48,0000.29
2023-02-09 10:39:00,,0828.0,5.02,0.00,22.7,21.0,00.0,31.5,24.4,09.0,0000.0,0002.51,0000.48,0000.29
2023-02-09 10:40:00,,0828.0,4.97,0.00,22.7,21.0,00.0,31.5,24.4,09.1,0000.0,0002.65,0000.51,0000.29
2023-02-09 10:41:00,,0828.0,4.96,0.00,22.6,21.0,00.0,31.5,24.3,09.1,0000.0,0002.73,0000.53,0000.28
2023-02-09 10:42:00,,0828.1,5.05,0.00,22.7,21.5,00.0,31.5,24.5,09.1,0000.0,0001.87,0000.53,0000.28
2023-02-09 10:43:00,,0828.1,5.02,0.00,22.7,22.4,00.0,31.5,24.7,09.1,0000.0,0001.71,0000.53,0000.29
2023-02-09 10:44:00,,0828.1,4.98,0.00,22.9,23.2,00.0,31.5,24.9,09.0,0000.0,0001.19,0000.52,0000.29
2023-02-09 10:45:00,,0828.1,5.04,0.00,22.9,22.9,00.0,31.5,24.8,09.0,0000.0,0001.15,0000.51,0000.29
2023-02-09 10:46:00,,0828.1,4.97,0.00,22.9,22.5,00.0,31.6,24.7,09.0,0000.0,0001.11,0000.49,0000.29
2023-02-09 10:47:00,,0828.1,5.03,0.00,22.9,22.2,00.0,31.6,24.7,09.0,0000.0,0001.85,0000.51,0000.29
2023-02-09 10:48:00,,0828.2,5.04,0.00,22.9,21.9,00.0,31.6,24.6,09.0,0000.0,0001.84,0000.50,0000.29
2023-02-09 10:49:00,,0828.1,4.89,0.00,22.9,21.8,00.0,31.6,24.6,09.0,0000.0,0001.80,0000.49,0000.29
2023-02-09 10:50:00,,0828.2,5.00,0.00,22.8,21.6,00.0,31.6,24.6,09.0,0000.0,0002.03,0000.51,0000.30
2023-02-09 10:51:00,,0828.3,4.98,0.00,22.8,21.5,00.0,31.6,24.6,09.1,0000.0,0002.18,0000.51,0000.31
2023-02-09 10:52:00,,0828.2,4.95,0.00,22.8,21.4,00.0,31.7,24.5,09.0,0000.0,0002.09,0000.48,0000.32
2023-02-09 10:53:00,,0828.2,5.07,0.00,22.8,21.4,00.0,31.7,24.5,09.1,0000.0,0002.19,0000.50,0000.31
2023-02-09 10:54:00,,0828.2,4.98,0.00,22.8,21.3,00.0,31.6,24.5,09.1,0000.0,0002.22,0000.52,0000.31
2023-02-09 10:55:00,,0828.2,4.93,0.00,22.8,21.3,00.0,31.6,24.5,09.1,0000.0,0002.26,0000.54,0000.31
2023-02-09 10:56:00,,0828.2,5.01,0.00,22.8,21.3,00.0,31.6,24.5,09.1,0000.0,0002.28,0000.55,0000.31
2023-02-09 10:57:00,,0828.3,5.04,0.00,22.8,21.3,00.0,31.6,24.5,09.1,0000.0,0002.20,0000.55,0000.31
2023-02-09 10:58:00,,0828.3,5.05,0.00,22.8,21.2,00.0,31.6,24.5,09.1,0000.0,0001.47,0000.52,0000.31
2023-02-09 10:59:00,,0828.3,5.03,0.00,22.8,21.2,00.0,31.6,24.5,09.1,0000.0,0001.44,0000.52,0000.31
